Wetterdaten: Donnerstag, 18.04.2019
Datum Zeit Temp. I. Temp. A. Boden 5 cm Feuchte A. Sonne Luftdruck Regen Wind Sonnenschein Zeit Regen
18.04.2019 00:02 21,8 C 9,9 C 10,3 C 62 % 0 % 1026 hPa 0,0 l/m 6,5 km/h (2 Bft) 0 min 0 min
18.04.2019 00:05 21,8 C 10,2 C 10,3 C 61 % 0 % 1026 hPa 0,0 l/m 8,4 km/h (2 Bft) 0 min 0 min
18.04.2019 00:08 21,8 C 10,3 C 10,4 C 61 % 0 % 1026 hPa 0,0 l/m 8,4 km/h (2 Bft) 0 min 0 min
18.04.2019 00:11 21,8 C 10,5 C 10,5 C 61 % 0 % 1026 hPa 0,0 l/m 8,7 km/h (2 Bft) 0 min 0 min
18.04.2019 00:14 21,8 C 10,6 C 10,5 C 60 % 0 % 1026 hPa 0,0 l/m 4,3 km/h (1 Bft) 0 min 0 min
18.04.2019 00:17 21,8 C 10,6 C 10,5 C 60 % 0 % 1026 hPa 0,0 l/m 3,3 km/h (1 Bft) 0 min 0 min
18.04.2019 00:20 21,8 C 10,6 C 10,4 C 60 % 0 % 1026 hPa 0,0 l/m 0,6 km/h (0 Bft) 0 min 0 min
18.04.2019 00:23 21,8 C 10,5 C 10,6 C 60 % 0 % 1026 hPa 0,0 l/m 2,0 km/h (1 Bft) 0 min 0 min
18.04.2019 00:26 21,8 C 10,4 C 10,5 C 60 % 0 % 1026 hPa 0,0 l/m 0,9 km/h (0 Bft) 0 min 0 min
18.04.2019 00:29 21,8 C 10,4 C 10,5 C 61 % 0 % 1026 hPa 0,0 l/m 0,9 km/h (0 Bft) 0 min 0 min
18.04.2019 00:32 21,8 C 10,3 C 10,5 C 60 % 0 % 1026 hPa 0,0 l/m 0,3 km/h (0 Bft) 0 min 0 min
18.04.2019 00:35 21,8 C 10,2 C 10,6 C 60 % 0 % 1026 hPa 0,0 l/m 0,3 km/h (0 Bft) 0 min 0 min
18.04.2019 00:38 21,8 C 10,1 C 10,5 C 60 % 0 % 1026 hPa 0,0 l/m 0,4 km/h (0 Bft) 0 min 0 min
18.04.2019 00:41 21,8 C 10,0 C 10,3 C 60 % 0 % 1026 hPa 0,0 l/m 0,1 km/h (0 Bft) 0 min 0 min
18.04.2019 00:44 21,8 C 9,8 C 10,2 C 61 % 0 % 1026 hPa 0,0 l/m 0,0 km/h (0 Bft) 0 min 0 min
18.04.2019 00:53 21,8 C 9,7 C 10,4 C 61 % 0 % 1026 hPa 0,0 l/m 0,0 km/h (0 Bft) 0 min 0 min
18.04.2019 00:56 21,8 C 9,6 C 10,3 C 61 % 0 % 1026 hPa 0,0 l/m 0,0 km/h (0 Bft) 0 min 0 min
18.04.2019 00:59 21,8 C 9,5 C 10,3 C 61 % 0 % 1026 hPa 0,0 l/m 0,0 km/h (0 Bft) 0 min 0 min
18.04.2019 01:02 21,8 C 9,3 C 10,3 C 62 % 0 % 1026 hPa 0,0 l/m 0,1 km/h (0 Bft) 0 min 0 min
18.04.2019 01:05 21,8 C 8,9 C 10,0 C 63 % 0 % 1026 hPa 0,0 l/m 0,0 km/h (0 Bft) 0 min 0 min
18.04.2019 01:08 21,8 C 8,8 C 10,0 C 63 % 0 % 1026 hPa 0,0 l/m 0,0 km/h (0 Bft) 0 min 0 min
18.04.2019 01:11 21,8 C 8,6 C 10,0 C 63 % 0 % 1026 hPa 0,0 l/m 0,0 km/h (0 Bft) 0 min 0 min
18.04.2019 01:14 21,8 C 8,6 C 9,9 C 63 % 0 % 1026 hPa 0,0 l/m 0,0 km/h (0 Bft) 0 min 0 min
18.04.2019 01:17 21,8 C 8,4 C 10,0 C 64 % 0 % 1026 hPa 0,0 l/m 0,0 km/h (0 Bft) 0 min 0 min
18.04.2019 01:20 21,8 C 8,3 C 9,8 C 64 % 0 % 1026 hPa 0,0 l/m 0,3 km/h (0 Bft) 0 min 0 min
18.04.2019 01:23 21,8 C 8,2 C 9,8 C 64 % 0 % 1026 hPa 0,0 l/m 0,0 km/h (0 Bft) 0 min 0 min
18.04.2019 01:26 21,8 C 8,1 C 9,5 C 64 % 0 % 1026 hPa 0,0 l/m 0,0 km/h (0 Bft) 0 min 0 min
18.04.2019 01:29 21,8 C 8,1 C 9,5 C 64 % 0 % 1026 hPa 0,0 l/m 0,0 km/h (0 Bft) 0 min 0 min
18.04.2019 01:32 21,8 C 7,9 C 9,4 C 65 % 0 % 1026 hPa 0,0 l/m 0,0 km/h (0 Bft) 0 min 0 min
18.04.2019 01:35 21,8 C 7,7 C 9,6 C 65 % 0 % 1026 hPa 0,0 l/m 0,0 km/h (0 Bft) 0 min 0 min
18.04.2019 01:38 21,8 C 7,6 C 9,6 C 65 % 0 % 1026 hPa 0,0 l/m 0,0 km/h (0 Bft) 0 min 0 min
18.04.2019 01:41 21,8 C 7,6 C 9,1 C 65 % 0 % 1026 hPa 0,0 l/m 0,0 km/h (0 Bft) 0 min 0 min
18.04.2019 01:44 21,8 C 7,6 C 9,3 C 66 % 0 % 1026 hPa 0,0 l/m 0,0 km/h (0 Bft) 0 min 0 min
18.04.2019 01:47 21,8 C 7,6 C 9,3 C 66 % 0 % 1026 hPa 0,0 l/m 0,0 km/h (0 Bft) 0 min 0 min
18.04.2019 01:50 21,8 C 7,4 C 9,1 C 66 % 0 % 1026 hPa 0,0 l/m 0,0 km/h (0 Bft) 0 min 0 min
18.04.2019 01:53 21,8 C 7,3 C 8,8 C 68 % 0 % 1026 hPa 0,0 l/m 0,0 km/h (0 Bft) 0 min 0 min
18.04.2019 01:56 21,8 C 7,3 C 9,0 C 68 % 0 % 1026 hPa 0,0 l/m 0,0 km/h (0 Bft) 0 min 0 min
18.04.2019 01:59 21,8 C 7,2 C 9,0 C 67 % 0 % 1026 hPa 0,0 l/m 0,0 km/h (0 Bft) 0 min 0 min
18.04.2019 02:02 21,8 C 7,2 C 9,1 C 67 % 0 % 1026 hPa 0,0 l/m 0,0 km/h (0 Bft) 0 min 0 min
18.04.2019 02:05 21,8 C 7,2 C 9,1 C 68 % 0 % 1026 hPa 0,0 l/m 0,0 km/h (0 Bft) 0 min 0 min
18.04.2019 02:08 21,7 C 7,2 C 8,9 C 68 % 0 % 1026 hPa 0,0 l/m 0,0 km/h (0 Bft) 0 min 0 min
18.04.2019 02:11 21,8 C 7,0 C 8,7 C 68 % 0 % 1026 hPa 0,0 l/m 0,0 km/h (0 Bft) 0 min 0 min
18.04.2019 02:14 21,8 C 6,8 C 8,7 C 68 % 0 % 1026 hPa 0,0 l/m 0,0 km/h (0 Bft) 0 min 0 min
18.04.2019 02:17 21,8 C 6,8 C 8,9 C 69 % 0 % 1026 hPa 0,0 l/m 0,0 km/h (0 Bft) 0 min 0 min
18.04.2019 02:20 21,8 C 6,7 C 8,9 C 69 % 0 % 1026 hPa 0,0 l/m 0,0 km/h (0 Bft) 0 min 0 min
18.04.2019 02:23 21,8 C 6,7 C 8,8 C 69 % 0 % 1026 hPa 0,0 l/m 0,0 km/h (0 Bft) 0 min 0 min
18.04.2019 02:26 21,8 C 6,7 C 8,7 C 69 % 0 % 1026 hPa 0,0 l/m 0,0 km/h (0 Bft) 0 min 0 min
18.04.2019 02:29 21,8 C 6,6 C 8,7 C 69 % 0 % 1026 hPa 0,0 l/m 0,0 km/h (0 Bft) 0 min 0 min
18.04.2019 02:32 21,7 C 6,6 C 8,6 C 69 % 0 % 1026 hPa 0,0 l/m 0,0 km/h (0 Bft) 0 min 0 min
18.04.2019 02:35 21,8 C 6,5 C 8,5 C 69 % 0 % 1026 hPa 0,0 l/m 0,0 km/h (0 Bft) 0 min 0 min
18.04.2019 02:38 21,8 C 6,4 C 8,6 C 70 % 0 % 1026 hPa 0,0 l/m 0,0 km/h (0 Bft) 0 min 0 min
18.04.2019 02:41 21,8 C 6,3 C 8,6 C 70 % 0 % 1026 hPa 0,0 l/m 0,0 km/h (0 Bft) 0 min 0 min
18.04.2019 02:44 21,8 C 6,3 C 8,4 C 70 % 0 % 1026 hPa 0,0 l/m 0,0 km/h (0 Bft) 0 min 0 min
18.04.2019 02:47 21,8 C 6,3 C 8,4 C 70 % 0 % 1026 hPa 0,0 l/m 0,0 km/h (0 Bft) 0 min 0 min
18.04.2019 02:50 21,8 C 6,3 C 8,2 C 70 % 0 % 1026 hPa 0,0 l/m 0,0 km/h (0 Bft) 0 min 0 min
18.04.2019 02:53 21,8 C 6,2 C 8,3 C 71 % 0 % 1026 hPa 0,0 l/m 0,0 km/h (0 Bft) 0 min 0 min
18.04.2019 02:56 21,8 C 6,3 C 8,3 C 72 % 0 % 1026 hPa 0,0 l/m 0,0 km/h (0 Bft) 0 min 0 min
18.04.2019 02:59 21,8 C 6,4 C 8,4 C 72 % 0 % 1026 hPa 0,0 l/m 0,0 km/h (0 Bft) 0 min 0 min
18.04.2019 03:02 21,8 C 6,4 C 8,4 C 72 % 0 % 1026 hPa 0,0 l/m 0,0 km/h (0 Bft) 0 min 0 min
18.04.2019 03:05 21,8 C 6,4 C 8,1 C 73 % 0 % 1026 hPa 0,0 l/m 0,0 km/h (0 Bft) 0 min 0 min
18.04.2019 03:08 21,8 C 6,4 C 8,1 C 73 % 0 % 1026 hPa 0,0 l/m 0,1 km/h (0 Bft) 0 min 0 min
18.04.2019 03:11 21,8 C 6,5 C 8,1 C 73 % 0 % 1026 hPa 0,0 l/m 0,1 km/h (0 Bft) 0 min 0 min
18.04.2019 03:14 21,7 C 6,5 C 8,2 C 73 % 0 % 1025 hPa 0,0 l/m 0,0 km/h (0 Bft) 0 min 0 min
18.04.2019 03:17 21,8 C 6,6 C 8,0 C 74 % 0 % 1025 hPa 0,0 l/m 0,0 km/h (0 Bft) 0 min 0 min
18.04.2019 03:20 21,7 C 6,7 C 8,1 C 73 % 0 % 1025 hPa 0,0 l/m 0,0 km/h (0 Bft) 0 min 0 min
18.04.2019 03:23 21,7 C 6,8 C 7,9 C 73 % 0 % 1025 hPa 0,0 l/m 0,0 km/h (0 Bft) 0 min 0 min
18.04.2019 03:26 21,7 C 6,8 C 8,3 C 73 % 0 % 1025 hPa 0,0 l/m 0,0 km/h (0 Bft) 0 min 0 min
18.04.2019 03:29 21,7 C 6,8 C 8,0 C 73 % 0 % 1026 hPa 0,0 l/m 0,0 km/h (0 Bft) 0 min 0 min
18.04.2019 03:32 21,7 C 6,8 C 8,0 C 73 % 0 % 1026 hPa 0,0 l/m 0,0 km/h (0 Bft) 0 min 0 min
18.04.2019 03:35 21,7 C 6,8 C 8,0 C 73 % 0 % 1026 hPa 0,0 l/m 0,0 km/h (0 Bft) 0 min 0 min
18.04.2019 03:38 21,8 C 6,9 C 8,0 C 73 % 0 % 1026 hPa 0,0 l/m 0,0 km/h (0 Bft) 0 min 0 min
18.04.2019 03:41 21,7 C 6,8 C 7,9 C 73 % 0 % 1025 hPa 0,0 l/m 0,0 km/h (0 Bft) 0 min 0 min
18.04.2019 03:44 21,7 C 6,8 C 8,0 C 72 % 0 % 1025 hPa 0,0 l/m 0,0 km/h (0 Bft) 0 min 0 min
18.04.2019 03:47 21,7 C 6,8 C 7,8 C 72 % 0 % 1025 hPa 0,0 l/m 0,0 km/h (0 Bft) 0 min 0 min
18.04.2019 03:50 21,7 C 6,8 C 7,9 C 73 % 0 % 1025 hPa 0,0 l/m 1,0 km/h (0 Bft) 0 min 0 min
18.04.2019 03:53 21,7 C 6,8 C 8,1 C 73 % 0 % 1025 hPa 0,0 l/m 0,3 km/h (0 Bft) 0 min 0 min
18.04.2019 03:56 21,7 C 6,9 C 8,1 C 72 % 0 % 1025 hPa 0,0 l/m 2,1 km/h (1 Bft) 0 min 0 min
18.04.2019 03:59 21,7 C 6,9 C 8,1 C 72 % 0 % 1025 hPa 0,0 l/m 0,2 km/h (0 Bft) 0 min 0 min
18.04.2019 04:02 21,7 C 6,8 C 8,1 C 71 % 0 % 1025 hPa 0,0 l/m 0,2 km/h (0 Bft) 0 min 0 min
18.04.2019 04:05 21,7 C 6,8 C 8,2 C 71 % 0 % 1025 hPa 0,0 l/m 0,8 km/h (0 Bft) 0 min 0 min
18.04.2019 04:08 21,7 C 6,7 C 8,1 C 71 % 0 % 1025 hPa 0,0 l/m 1,3 km/h (1 Bft) 0 min 0 min
18.04.2019 04:11 21,7 C 6,6 C 8,1 C 71 % 0 % 1025 hPa 0,0 l/m 0,0 km/h (0 Bft) 0 min 0 min
18.04.2019 04:14 21,7 C 6,6 C 8,0 C 72 % 0 % 1025 hPa 0,0 l/m 0,0 km/h (0 Bft) 0 min 0 min
18.04.2019 04:17 21,8 C 6,5 C 8,1 C 71 % 0 % 1025 hPa 0,0 l/m 0,0 km/h (0 Bft) 0 min 0 min
18.04.2019 04:20 21,7 C 6,5 C 8,0 C 72 % 0 % 1025 hPa 0,0 l/m 0,0 km/h (0 Bft) 0 min 0 min
18.04.2019 04:23 21,8 C 6,5 C 7,9 C 72 % 0 % 1025 hPa 0,0 l/m 0,0 km/h (0 Bft) 0 min 0 min
18.04.2019 04:26 21,7 C 6,3 C 7,5 C 72 % 0 % 1025 hPa 0,0 l/m 0,0 km/h (0 Bft) 0 min 0 min
18.04.2019 04:29 21,7 C 6,2 C 7,8 C 72 % 0 % 1025 hPa 0,0 l/m 0,0 km/h (0 Bft) 0 min 0 min
18.04.2019 04:32 21,7 C 6,1 C 7,5 C 72 % 0 % 1025 hPa 0,0 l/m 0,0 km/h (0 Bft) 0 min 0 min
18.04.2019 04:35 21,7 C 6,0 C 7,3 C 73 % 0 % 1025 hPa 0,0 l/m 0,0 km/h (0 Bft) 0 min 0 min
18.04.2019 04:38 21,7 C 6,0 C 7,7 C 73 % 0 % 1025 hPa 0,0 l/m 0,0 km/h (0 Bft) 0 min 0 min
18.04.2019 04:41 21,7 C 6,0 C 7,6 C 73 % 0 % 1025 hPa 0,0 l/m 0,0 km/h (0 Bft) 0 min 0 min
18.04.2019 04:44 21,7 C 6,0 C 7,6 C 73 % 0 % 1025 hPa 0,0 l/m 0,0 km/h (0 Bft) 0 min 0 min
18.04.2019 04:47 21,8 C 5,9 C 7,6 C 73 % 0 % 1025 hPa 0,0 l/m 0,0 km/h (0 Bft) 0 min 0 min
18.04.2019 04:50 21,7 C 5,7 C 7,4 C 73 % 0 % 1025 hPa 0,0 l/m 0,0 km/h (0 Bft) 0 min 0 min
18.04.2019 04:53 21,7 C 5,6 C 7,3 C 73 % 0 % 1025 hPa 0,0 l/m 0,0 km/h (0 Bft) 0 min 0 min
18.04.2019 04:56 21,7 C 5,4 C 7,2 C 73 % 0 % 1025 hPa 0,0 l/m 0,0 km/h (0 Bft) 0 min 0 min
18.04.2019 04:59 21,7 C 5,2 C 7,2 C 73 % 0 % 1025 hPa 0,0 l/m 0,0 km/h (0 Bft) 0 min 0 min
18.04.2019 05:02 21,7 C 5,2 C 7,2 C 73 % 0 % 1025 hPa 0,0 l/m 0,0 km/h (0 Bft) 0 min 0 min
18.04.2019 05:05 21,7 C 5,1 C 7,1 C 74 % 0 % 1025 hPa 0,0 l/m 0,7 km/h (0 Bft) 0 min 0 min
18.04.2019 05:08 21,7 C 4,9 C 7,2 C 74 % 0 % 1025 hPa 0,0 l/m 3,0 km/h (1 Bft) 0 min 0 min
18.04.2019 05:11 21,7 C 4,9 C 7,4 C 75 % 0 % 1025 hPa 0,0 l/m 2,7 km/h (1 Bft) 0 min 0 min
18.04.2019 05:14 21,7 C 4,9 C 7,4 C 76 % 0 % 1025 hPa 0,0 l/m 0,6 km/h (0 Bft) 0 min 0 min
18.04.2019 05:17 21,7 C 5,1 C 7,3 C 75 % 0 % 1025 hPa 0,0 l/m 1,5 km/h (1 Bft) 0 min 0 min
18.04.2019 05:20 21,7 C 5,1 C 7,3 C 75 % 0 % 1025 hPa 0,0 l/m 0,0 km/h (0 Bft) 0 min 0 min
18.04.2019 05:23 21,7 C 5,1 C 7,3 C 75 % 1 % 1025 hPa 0,0 l/m 0,0 km/h (0 Bft) 0 min 0 min
18.04.2019 05:26 21,7 C 4,9 C 6,8 C 76 % 0 % 1025 hPa 0,0 l/m 0,0 km/h (0 Bft) 0 min 0 min
18.04.2019 05:29 21,7 C 4,9 C 7,1 C 76 % 1 % 1025 hPa 0,0 l/m 0,0 km/h (0 Bft) 0 min 0 min
18.04.2019 05:32 21,7 C 4,9 C 7,1 C 76 % 1 % 1025 hPa 0,0 l/m 0,0 km/h (0 Bft) 0 min 0 min
18.04.2019 05:35 21,7 C 4,8 C 7,1 C 76 % 1 % 1025 hPa 0,0 l/m 0,0 km/h (0 Bft) 0 min 0 min
18.04.2019 05:38 21,7 C 4,8 C 6,7 C 76 % 1 % 1025 hPa 0,0 l/m 0,0 km/h (0 Bft) 0 min 0 min
18.04.2019 05:41 21,7 C 4,7 C 7,0 C 76 % 1 % 1025 hPa 0,0 l/m 0,0 km/h (0 Bft) 0 min 0 min
18.04.2019 05:44 21,7 C 4,7 C 6,7 C 76 % 1 % 1025 hPa 0,0 l/m 0,0 km/h (0 Bft) 0 min 0 min
18.04.2019 05:47 21,7 C 4,7 C 6,8 C 76 % 1 % 1025 hPa 0,0 l/m 0,0 km/h (0 Bft) 0 min 0 min
18.04.2019 05:50 21,7 C 4,6 C 7,0 C 76 % 1 % 1025 hPa 0,0 l/m 0,0 km/h (0 Bft) 0 min 0 min
18.04.2019 05:53 21,7 C 4,6 C 6,8 C 76 % 1 % 1025 hPa 0,0 l/m 0,0 km/h (0 Bft) 0 min 0 min
18.04.2019 05:56 21,7 C 4,5 C 6,9 C 76 % 1 % 1025 hPa 0,0 l/m 0,0 km/h (0 Bft) 0 min 0 min
18.04.2019 05:59 21,7 C 4,4 C 6,8 C 76 % 1 % 1025 hPa 0,0 l/m 1,8 km/h (1 Bft) 0 min 0 min
18.04.2019 06:02 21,7 C 4,4 C 6,8 C 76 % 1 % 1025 hPa 0,0 l/m 0,6 km/h (0 Bft) 0 min 0 min
18.04.2019 06:05 21,8 C 4,4 C 6,7 C 76 % 1 % 1025 hPa 0,0 l/m 1,2 km/h (1 Bft) 0 min 0 min
18.04.2019 06:08 21,7 C 4,1 C 6,7 C 77 % 1 % 1025 hPa 0,0 l/m 0,6 km/h (0 Bft) 0 min 0 min
18.04.2019 06:11 21,7 C 4,1 C 6,7 C 77 % 1 % 1025 hPa 0,0 l/m 0,3 km/h (0 Bft) 0 min 0 min
18.04.2019 06:14 21,7 C 4,1 C 6,6 C 77 % 2 % 1025 hPa 0,0 l/m 0,4 km/h (0 Bft) 0 min 0 min
18.04.2019 06:17 21,8 C 4,1 C 6,2 C 78 % 2 % 1025 hPa 0,0 l/m 0,0 km/h (0 Bft) 0 min 0 min
18.04.2019 06:20 21,7 C 4,3 C 6,5 C 78 % 3 % 1025 hPa 0,0 l/m 0,0 km/h (0 Bft) 0 min 0 min
18.04.2019 06:23 21,7 C 4,3 C 6,8 C 78 % 3 % 1025 hPa 0,0 l/m 0,0 km/h (0 Bft) 3 min 0 min
18.04.2019 06:26 21,7 C 4,3 C 6,8 C 77 % 4 % 1025 hPa 0,0 l/m 0,0 km/h (0 Bft) 3 min 0 min
18.04.2019 06:29 21,8 C 4,3 C 6,5 C 77 % 4 % 1025 hPa 0,0 l/m 0,2 km/h (0 Bft) 3 min 0 min
18.04.2019 06:32 21,8 C 4,3 C 6,6 C 77 % 5 % 1026 hPa 0,0 l/m 0,1 km/h (0 Bft) 3 min 0 min
18.04.2019 06:35 21,8 C 4,3 C 6,2 C 77 % 8 % 1026 hPa 0,0 l/m 0,0 km/h (0 Bft) 3 min 0 min
18.04.2019 06:38 21,7 C 4,3 C 6,6 C 78 % 9 % 1026 hPa 0,0 l/m 0,0 km/h (0 Bft) 3 min 0 min
18.04.2019 06:41 21,8 C 4,3 C 6,6 C 78 % 10 % 1026 hPa 0,0 l/m 0,0 km/h (0 Bft) 3 min 0 min
18.04.2019 06:44 21,8 C 4,3 C 6,3 C 78 % 11 % 1026 hPa 0,0 l/m 0,0 km/h (0 Bft) 3 min 0 min
18.04.2019 06:47 21,8 C 4,4 C 6,6 C 78 % 12 % 1026 hPa 0,0 l/m 0,0 km/h (0 Bft) 3 min 0 min
18.04.2019 06:50 21,8 C 4,6 C 6,6 C 78 % 13 % 1026 hPa 0,0 l/m 0,0 km/h (0 Bft) 3 min 0 min
18.04.2019 06:53 21,8 C 4,6 C 6,7 C 78 % 14 % 1026 hPa 0,0 l/m 0,0 km/h (0 Bft) 3 min 0 min
18.04.2019 06:56 21,8 C 4,7 C 6,6 C 78 % 14 % 1026 hPa 0,0 l/m 0,0 km/h (0 Bft) 3 min 0 min
18.04.2019 06:59 21,8 C 4,7 C 6,7 C 78 % 16 % 1026 hPa 0,0 l/m 0,0 km/h (0 Bft) 3 min 0 min
18.04.2019 07:02 21,7 C 4,7 C 6,8 C 78 % 16 % 1026 hPa 0,0 l/m 0,0 km/h (0 Bft) 3 min 0 min
18.04.2019 07:05 21,7 C 4,9 C 6,8 C 78 % 18 % 1026 hPa 0,0 l/m 0,0 km/h (0 Bft) 3 min 0 min
18.04.2019 07:08 21,7 C 5,1 C 6,8 C 78 % 19 % 1026 hPa 0,0 l/m 0,0 km/h (0 Bft) 3 min 0 min
18.04.2019 07:11 21,7 C 5,2 C 6,9 C 77 % 20 % 1026 hPa 0,0 l/m 0,0 km/h (0 Bft) 3 min 0 min
18.04.2019 07:14 21,7 C 5,3 C 6,9 C 77 % 21 % 1026 hPa 0,0 l/m 0,0 km/h (0 Bft) 3 min 0 min
18.04.2019 07:17 21,7 C 5,3 C 6,8 C 77 % 22 % 1026 hPa 0,0 l/m 0,0 km/h (0 Bft) 3 min 0 min
18.04.2019 07:20 21,7 C 5,6 C 7,0 C 77 % 22 % 1026 hPa 0,0 l/m 0,0 km/h (0 Bft) 3 min 0 min
18.04.2019 07:23 21,7 C 5,6 C 7,0 C 77 % 22 % 1026 hPa 0,0 l/m 0,0 km/h (0 Bft) 3 min 0 min
18.04.2019 07:26 21,7 C 5,9 C 7,1 C 77 % 23 % 1026 hPa 0,0 l/m 0,0 km/h (0 Bft) 3 min 0 min
18.04.2019 07:29 21,7 C 6,0 C 7,1 C 77 % 25 % 1026 hPa 0,0 l/m 0,0 km/h (0 Bft) 3 min 0 min
18.04.2019 07:32 21,7 C 6,2 C 7,2 C 76 % 26 % 1026 hPa 0,0 l/m 0,0 km/h (0 Bft) 3 min 0 min
18.04.2019 07:35 21,7 C 6,4 C 7,3 C 76 % 27 % 1026 hPa 0,0 l/m 0,0 km/h (0 Bft) 3 min 0 min
18.04.2019 07:38 21,7 C 6,6 C 7,3 C 76 % 28 % 1026 hPa 0,0 l/m 0,0 km/h (0 Bft) 3 min 0 min
18.04.2019 07:41 21,7 C 6,8 C 7,3 C 76 % 28 % 1026 hPa 0,0 l/m 0,0 km/h (0 Bft) 3 min 0 min
18.04.2019 07:44 21,8 C 7,0 C 7,5 C 76 % 29 % 1026 hPa 0,0 l/m 0,0 km/h (0 Bft) 3 min 0 min
18.04.2019 07:47 21,8 C 7,0 C 7,6 C 76 % 30 % 1026 hPa 0,0 l/m 0,0 km/h (0 Bft) 3 min 0 min
18.04.2019 07:50 21,7 C 7,4 C 7,6 C 75 % 31 % 1026 hPa 0,0 l/m 0,3 km/h (0 Bft) 3 min 0 min
18.04.2019 07:53 21,7 C 7,5 C 7,7 C 75 % 33 % 1026 hPa 0,0 l/m 0,0 km/h (0 Bft) 3 min 0 min
18.04.2019 07:56 21,8 C 7,7 C 7,7 C 74 % 35 % 1026 hPa 0,0 l/m 0,0 km/h (0 Bft) 3 min 0 min
18.04.2019 07:59 21,8 C 7,9 C 7,8 C 75 % 37 % 1026 hPa 0,0 l/m 0,0 km/h (0 Bft) 3 min 0 min
18.04.2019 08:02 21,8 C 8,1 C 7,9 C 74 % 39 % 1026 hPa 0,0 l/m 0,0 km/h (0 Bft) 3 min 0 min
18.04.2019 08:05 21,8 C 8,3 C 7,8 C 73 % 39 % 1026 hPa 0,0 l/m 0,0 km/h (0 Bft) 3 min 0 min
18.04.2019 08:08 21,8 C 8,4 C 8,0 C 72 % 31 % 1026 hPa 0,0 l/m 0,0 km/h (0 Bft) 0 min 0 min
18.04.2019 08:11 21,8 C 8,6 C 8,0 C 71 % 29 % 1026 hPa 0,0 l/m 4,8 km/h (1 Bft) 0 min 0 min
18.04.2019 08:14 21,8 C 8,8 C 8,1 C 71 % 24 % 1026 hPa 0,0 l/m 4,3 km/h (1 Bft) 0 min 0 min
18.04.2019 08:17 21,8 C 9,0 C 8,1 C 70 % 25 % 1026 hPa 0,0 l/m 6,0 km/h (2 Bft) 0 min 0 min
18.04.2019 08:20 21,8 C 9,2 C 8,1 C 70 % 31 % 1026 hPa 0,0 l/m 5,1 km/h (1 Bft) 0 min 0 min
18.04.2019 08:23 21,8 C 9,4 C 8,2 C 69 % 36 % 1026 hPa 0,0 l/m 8,7 km/h (2 Bft) 0 min 0 min
18.04.2019 08:26 21,8 C 9,5 C 8,3 C 68 % 25 % 1026 hPa 0,0 l/m 7,6 km/h (2 Bft) 0 min 0 min
18.04.2019 08:29 21,8 C 9,6 C 8,2 C 68 % 35 % 1026 hPa 0,0 l/m 7,6 km/h (2 Bft) 0 min 0 min
18.04.2019 08:32 21,8 C 9,7 C 8,5 C 68 % 25 % 1026 hPa 0,0 l/m 3,4 km/h (1 Bft) 0 min 0 min
18.04.2019 08:35 21,8 C 9,8 C 8,4 C 68 % 21 % 1026 hPa 0,0 l/m 1,1 km/h (1 Bft) 0 min 0 min
18.04.2019 08:38 21,8 C 9,9 C 8,4 C 68 % 22 % 1026 hPa 0,0 l/m 6,0 km/h (2 Bft) 0 min 0 min
18.04.2019 08:41 21,8 C 10,0 C 8,3 C 68 % 23 % 1026 hPa 0,0 l/m 2,6 km/h (1 Bft) 0 min 0 min
18.04.2019 08:44 21,8 C 10,2 C 8,6 C 68 % 28 % 1026 hPa 0,0 l/m 0,6 km/h (0 Bft) 0 min 0 min
18.04.2019 08:47 21,8 C 10,5 C 8,6 C 68 % 45 % 1026 hPa 0,0 l/m 5,4 km/h (1 Bft) 3 min 0 min
18.04.2019 08:50 21,8 C 10,7 C 8,8 C 67 % 48 % 1027 hPa 0,0 l/m 2,7 km/h (1 Bft) 3 min 0 min
18.04.2019 08:53 21,8 C 10,8 C 8,8 C 66 % 47 % 1027 hPa 0,0 l/m 13,6 km/h (3 Bft) 3 min 0 min
18.04.2019 08:56 21,8 C 11,0 C 8,9 C 65 % 48 % 1027 hPa 0,0 l/m 12,8 km/h (3 Bft) 3 min 0 min
18.04.2019 08:59 21,8 C 11,0 C 8,9 C 65 % 34 % 1026 hPa 0,0 l/m 14,4 km/h (3 Bft) 0 min 0 min
18.04.2019 09:02 21,8 C 11,5 C 8,9 C 64 % 31 % 1026 hPa 0,0 l/m 11,5 km/h (2 Bft) 0 min 0 min
18.04.2019 09:05 21,8 C 11,6 C 9,0 C 63 % 32 % 1027 hPa 0,0 l/m 14,3 km/h (3 Bft) 0 min 0 min
18.04.2019 09:08 21,8 C 11,7 C 9,0 C 63 % 34 % 1027 hPa 0,0 l/m 12,7 km/h (3 Bft) 0 min 0 min
18.04.2019 09:11 21,8 C 11,8 C 9,0 C 63 % 45 % 1027 hPa 0,0 l/m 14,6 km/h (3 Bft) 0 min 0 min
18.04.2019 09:14 21,8 C 12,1 C 9,0 C 62 % 43 % 1027 hPa 0,0 l/m 6,6 km/h (2 Bft) 0 min 0 min
18.04.2019 09:17 21,8 C 12,1 C 8,8 C 62 % 48 % 1027 hPa 0,0 l/m 6,1 km/h (2 Bft) 0 min 0 min
18.04.2019 09:20 21,8 C 12,5 C 9,0 C 62 % 49 % 1027 hPa 0,0 l/m 13,1 km/h (3 Bft) 0 min 0 min
18.04.2019 09:23 21,8 C 12,6 C 9,2 C 61 % 49 % 1027 hPa 0,0 l/m 13,1 km/h (3 Bft) 0 min 0 min
18.04.2019 09:26 21,8 C 12,8 C 9,2 C 61 % 49 % 1027 hPa 0,0 l/m 12,7 km/h (3 Bft) 0 min 0 min
18.04.2019 09:29 21,8 C 13,0 C 9,2 C 60 % 49 % 1027 hPa 0,0 l/m 15,9 km/h (3 Bft) 0 min 0 min
18.04.2019 09:32 21,8 C 13,0 C 9,1 C 60 % 50 % 1027 hPa 0,0 l/m 22,5 km/h (4 Bft) 0 min 0 min
18.04.2019 09:35 21,8 C 13,2 C 9,0 C 60 % 50 % 1027 hPa 0,0 l/m 16,9 km/h (3 Bft) 0 min 0 min
18.04.2019 09:38 21,8 C 13,3 C 9,1 C 59 % 51 % 1027 hPa 0,0 l/m 13,3 km/h (3 Bft) 0 min 0 min
18.04.2019 09:41 21,8 C 13,5 C 9,0 C 59 % 52 % 1027 hPa 0,0 l/m 11,5 km/h (2 Bft) 0 min 0 min
18.04.2019 09:44 21,8 C 13,5 C 8,8 C 58 % 52 % 1027 hPa 0,0 l/m 12,6 km/h (3 Bft) 0 min 0 min
18.04.2019 09:47 21,8 C 13,6 C 8,8 C 59 % 53 % 1027 hPa 0,0 l/m 16,5 km/h (3 Bft) 0 min 0 min
18.04.2019 09:50 21,8 C 13,8 C 8,9 C 58 % 53 % 1027 hPa 0,0 l/m 11,3 km/h (2 Bft) 0 min 0 min
18.04.2019 09:53 21,8 C 14,0 C 8,8 C 57 % 53 % 1027 hPa 0,0 l/m 17,8 km/h (3 Bft) 3 min 0 min
18.04.2019 09:56 21,8 C 14,4 C 8,8 C 58 % 54 % 1027 hPa 0,0 l/m 9,7 km/h (2 Bft) 3 min 0 min
18.04.2019 09:59 21,8 C 14,7 C 8,8 C 57 % 54 % 1027 hPa 0,0 l/m 16,8 km/h (3 Bft) 3 min 0 min
18.04.2019 10:02 21,8 C 14,8 C 8,9 C 57 % 54 % 1027 hPa 0,0 l/m 15,4 km/h (3 Bft) 3 min 0 min
18.04.2019 10:05 21,8 C 15,0 C 9,1 C 55 % 55 % 1026 hPa 0,0 l/m 17,9 km/h (3 Bft) 3 min 0 min
18.04.2019 10:08 21,8 C 15,0 C 9,0 C 53 % 56 % 1026 hPa 0,0 l/m 19,8 km/h (3 Bft) 3 min 0 min
18.04.2019 10:11 21,8 C 15,2 C 9,1 C 53 % 58 % 1026 hPa 0,0 l/m 18,8 km/h (3 Bft) 3 min 0 min
18.04.2019 10:14 21,8 C 15,4 C 9,1 C 53 % 59 % 1026 hPa 0,0 l/m 21,1 km/h (4 Bft) 3 min 0 min
18.04.2019 10:17 21,8 C 15,5 C 9,0 C 51 % 62 % 1026 hPa 0,0 l/m 25,5 km/h (4 Bft) 3 min 0 min
18.04.2019 10:20 21,8 C 15,8 C 9,1 C 53 % 63 % 1026 hPa 0,0 l/m 22,1 km/h (4 Bft) 3 min 0 min
18.04.2019 10:23 21,8 C 15,9 C 9,2 C 51 % 65 % 1026 hPa 0,0 l/m 22,5 km/h (4 Bft) 3 min 0 min
18.04.2019 10:26 21,8 C 16,2 C 9,1 C 50 % 65 % 1026 hPa 0,0 l/m 19,9 km/h (4 Bft) 3 min 0 min
18.04.2019 10:29 21,9 C 16,4 C 9,1 C 51 % 69 % 1027 hPa 0,0 l/m 19,2 km/h (3 Bft) 3 min 0 min
18.04.2019 10:32 21,9 C 16,5 C 9,1 C 49 % 70 % 1027 hPa 0,0 l/m 18,0 km/h (3 Bft) 3 min 0 min
18.04.2019 10:35 21,9 C 16,5 C 9,5 C 49 % 71 % 1026 hPa 0,0 l/m 25,0 km/h (4 Bft) 3 min 0 min
18.04.2019 10:38 21,8 C 16,7 C 9,3 C 48 % 72 % 1026 hPa 0,0 l/m 25,6 km/h (4 Bft) 3 min 0 min
18.04.2019 10:41 21,9 C 16,7 C 9,3 C 48 % 72 % 1026 hPa 0,0 l/m 23,1 km/h (4 Bft) 3 min 0 min
18.04.2019 10:44 21,9 C 16,8 C 9,3 C 47 % 72 % 1026 hPa 0,0 l/m 26,7 km/h (4 Bft) 3 min 0 min
18.04.2019 10:47 22,0 C 16,8 C 9,3 C 47 % 72 % 1026 hPa 0,0 l/m 27,1 km/h (4 Bft) 3 min 0 min
18.04.2019 10:50 21,8 C 17,0 C 9,3 C 47 % 74 % 1026 hPa 0,0 l/m 30,5 km/h (5 Bft) 3 min 0 min
18.04.2019 10:53 21,9 C 17,0 C 9,4 C 47 % 74 % 1026 hPa 0,0 l/m 30,5 km/h (5 Bft) 3 min 0 min
18.04.2019 10:56 21,9 C 17,2 C 9,5 C 46 % 75 % 1026 hPa 0,0 l/m 35,6 km/h (5 Bft) 3 min 0 min
18.04.2019 10:59 21,9 C 17,2 C 9,5 C 45 % 75 % 1026 hPa 0,0 l/m 35,6 km/h (5 Bft) 3 min 0 min
18.04.2019 11:02 21,9 C 17,2 C 9,5 C 45 % 75 % 1026 hPa 0,0 l/m 23,2 km/h (4 Bft) 3 min 0 min
18.04.2019 11:05 21,9 C 17,3 C 9,5 C 45 % 76 % 1026 hPa 0,0 l/m 29,7 km/h (5 Bft) 3 min 0 min
18.04.2019 11:08 22,0 C 17,4 C 9,7 C 45 % 77 % 1026 hPa 0,0 l/m 29,8 km/h (5 Bft) 3 min 0 min
18.04.2019 11:11 21,9 C 17,6 C 9,6 C 44 % 78 % 1026 hPa 0,0 l/m 25,4 km/h (4 Bft) 3 min 0 min
18.04.2019 11:14 21,9 C 17,7 C 9,6 C 44 % 78 % 1026 hPa 0,0 l/m 25,4 km/h (4 Bft) 3 min 0 min
18.04.2019 11:17 21,9 C 17,6 C 9,5 C 41 % 78 % 1026 hPa 0,0 l/m 31,2 km/h (5 Bft) 3 min 0 min
18.04.2019 11:20 22,0 C 17,8 C 9,7 C 42 % 78 % 1026 hPa 0,0 l/m 24,0 km/h (4 Bft) 3 min 0 min
18.04.2019 11:23 22,0 C 18,0 C 9,7 C 41 % 79 % 1026 hPa 0,0 l/m 24,0 km/h (4 Bft) 3 min 0 min
18.04.2019 11:26 22,0 C 18,2 C 9,7 C 41 % 79 % 1026 hPa 0,0 l/m 20,4 km/h (4 Bft) 3 min 0 min
18.04.2019 11:29 21,9 C 18,1 C 10,0 C 41 % 79 % 1026 hPa 0,0 l/m 29,0 km/h (5 Bft) 3 min 0 min
18.04.2019 11:32 21,9 C 18,1 C 10,0 C 39 % 79 % 1026 hPa 0,0 l/m 35,3 km/h (5 Bft) 3 min 0 min
18.04.2019 11:35 21,9 C 18,1 C 9,8 C 39 % 79 % 1026 hPa 0,0 l/m 28,8 km/h (4 Bft) 3 min 0 min
18.04.2019 11:38 22,0 C 18,2 C 10,2 C 40 % 80 % 1026 hPa 0,0 l/m 31,5 km/h (5 Bft) 3 min 0 min
18.04.2019 11:41 22,0 C 18,1 C 10,1 C 38 % 80 % 1026 hPa 0,0 l/m 38,1 km/h (5 Bft) 3 min 0 min
18.04.2019 11:44 22,0 C 18,3 C 10,0 C 40 % 79 % 1026 hPa 0,0 l/m 30,2 km/h (5 Bft) 3 min 0 min
18.04.2019 11:47 22,0 C 18,6 C 10,2 C 40 % 79 % 1026 hPa 0,0 l/m 30,2 km/h (5 Bft) 3 min 0 min
18.04.2019 11:50 22,0 C 18,6 C 10,3 C 37 % 80 % 1026 hPa 0,0 l/m 23,2 km/h (4 Bft) 3 min 0 min
18.04.2019 11:53 22,0 C 18,5 C 10,4 C 37 % 80 % 1026 hPa 0,0 l/m 25,8 km/h (4 Bft) 3 min 0 min
18.04.2019 11:56 21,9 C 18,6 C 10,2 C 38 % 80 % 1026 hPa 0,0 l/m 30,7 km/h (5 Bft) 3 min 0 min
18.04.2019 11:59 21,9 C 18,6 C 10,1 C 38 % 80 % 1026 hPa 0,0 l/m 31,2 km/h (5 Bft) 3 min 0 min
18.04.2019 12:02 21,9 C 18,7 C 10,1 C 38 % 80 % 1026 hPa 0,0 l/m 31,2 km/h (5 Bft) 3 min 0 min
18.04.2019 12:05 21,9 C 18,7 C 10,4 C 39 % 80 % 1026 hPa 0,0 l/m 29,0 km/h (5 Bft) 3 min 0 min
18.04.2019 12:08 21,8 C 18,9 C 10,6 C 38 % 80 % 1026 hPa 0,0 l/m 23,5 km/h (4 Bft) 3 min 0 min
18.04.2019 12:11 21,9 C 18,9 C 10,8 C 38 % 80 % 1026 hPa 0,0 l/m 26,7 km/h (4 Bft) 3 min 0 min
18.04.2019 12:14 21,9 C 19,2 C 10,6 C 35 % 80 % 1026 hPa 0,0 l/m 33,9 km/h (5 Bft) 3 min 0 min
18.04.2019 12:17 21,9 C 19,0 C 10,6 C 34 % 80 % 1026 hPa 0,0 l/m 35,0 km/h (5 Bft) 3 min 0 min
18.04.2019 12:20 21,9 C 18,8 C 10,6 C 35 % 80 % 1026 hPa 0,0 l/m 29,6 km/h (5 Bft) 3 min 0 min
18.04.2019 12:23 21,9 C 19,1 C 10,6 C 35 % 80 % 1026 hPa 0,0 l/m 30,3 km/h (5 Bft) 3 min 0 min
18.04.2019 12:26 21,9 C 19,2 C 10,7 C 35 % 80 % 1026 hPa 0,0 l/m 38,6 km/h (5 Bft) 3 min 0 min
18.04.2019 12:29 21,9 C 19,2 C 10,8 C 34 % 80 % 1026 hPa 0,0 l/m 32,7 km/h (5 Bft) 3 min 0 min
18.04.2019 12:32 21,9 C 19,2 C 10,4 C 34 % 80 % 1026 hPa 0,0 l/m 37,6 km/h (5 Bft) 3 min 0 min
18.04.2019 12:35 21,9 C 19,1 C 10,4 C 34 % 80 % 1026 hPa 0,0 l/m 27,3 km/h (4 Bft) 3 min 0 min
18.04.2019 12:38 21,8 C 19,2 C 10,9 C 34 % 80 % 1026 hPa 0,0 l/m 29,1 km/h (5 Bft) 3 min 0 min
18.04.2019 12:41 21,8 C 19,4 C 10,9 C 34 % 80 % 1026 hPa 0,0 l/m 37,7 km/h (5 Bft) 3 min 0 min
18.04.2019 12:44 21,9 C 19,4 C 11,1 C 34 % 80 % 1026 hPa 0,0 l/m 36,3 km/h (5 Bft) 3 min 0 min
18.04.2019 12:47 21,8 C 19,3 C 11,0 C 34 % 79 % 1026 hPa 0,0 l/m 33,0 km/h (5 Bft) 3 min 0 min
18.04.2019 12:50 21,8 C 19,4 C 11,1 C 33 % 79 % 1026 hPa 0,0 l/m 32,8 km/h (5 Bft) 3 min 0 min
18.04.2019 12:53 21,9 C 19,6 C 11,4 C 33 % 79 % 1026 hPa 0,0 l/m 34,0 km/h (5 Bft) 3 min 0 min
18.04.2019 12:56 21,9 C 19,6 C 11,1 C 33 % 79 % 1026 hPa 0,0 l/m 24,5 km/h (4 Bft) 3 min 0 min
18.04.2019 12:59 21,9 C 19,6 C 11,3 C 33 % 79 % 1026 hPa 0,0 l/m 26,6 km/h (4 Bft) 3 min 0 min
18.04.2019 13:02 22,0 C 19,6 C 11,4 C 32 % 79 % 1026 hPa 0,0 l/m 26,5 km/h (4 Bft) 3 min 0 min
18.04.2019 13:05 22,0 C 19,9 C 11,5 C 32 % 79 % 1026 hPa 0,0 l/m 25,0 km/h (4 Bft) 3 min 0 min
18.04.2019 13:08 22,0 C 20,0 C 11,6 C 32 % 79 % 1026 hPa 0,0 l/m 28,5 km/h (4 Bft) 3 min 0 min
18.04.2019 13:11 22,0 C 20,0 C 11,7 C 32 % 79 % 1026 hPa 0,0 l/m 30,2 km/h (5 Bft) 3 min 0 min
18.04.2019 13:14 22,0 C 19,9 C 11,7 C 32 % 79 % 1026 hPa 0,0 l/m 27,1 km/h (4 Bft) 3 min 0 min
18.04.2019 13:17 22,0 C 19,9 C 11,8 C 31 % 79 % 1026 hPa 0,0 l/m 28,8 km/h (4 Bft) 3 min 0 min
18.04.2019 13:20 22,0 C 20,0 C 11,8 C 33 % 79 % 1026 hPa 0,0 l/m 32,5 km/h (5 Bft) 3 min 0 min
18.04.2019 13:23 22,0 C 20,2 C 12,7 C 33 % 79 % 1026 hPa 0,0 l/m 31,3 km/h (5 Bft) 3 min 0 min
18.04.2019 13:26 22,0 C 20,2 C 12,9 C 33 % 79 % 1026 hPa 0,0 l/m 31,1 km/h (5 Bft) 3 min 0 min
18.04.2019 13:29 22,0 C 20,5 C 12,5 C 33 % 79 % 1026 hPa 0,0 l/m 20,0 km/h (4 Bft) 3 min 0 min
18.04.2019 13:32 22,0 C 20,4 C 12,9 C 32 % 79 % 1026 hPa 0,0 l/m 37,3 km/h (5 Bft) 3 min 0 min
18.04.2019 13:35 22,0 C 20,3 C 12,9 C 32 % 79 % 1026 hPa 0,0 l/m 26,5 km/h (4 Bft) 3 min 0 min
18.04.2019 13:38 22,0 C 20,4 C 12,4 C 32 % 79 % 1026 hPa 0,0 l/m 20,0 km/h (4 Bft) 3 min 0 min
18.04.2019 13:41 22,0 C 20,4 C 12,7 C 31 % 79 % 1026 hPa 0,0 l/m 26,1 km/h (4 Bft) 3 min 0 min
18.04.2019 13:44 22,0 C 20,4 C 12,7 C 31 % 79 % 1026 hPa 0,0 l/m 27,5 km/h (4 Bft) 3 min 0 min
18.04.2019 13:47 22,0 C 20,4 C 15,3 C 32 % 79 % 1026 hPa 0,0 l/m 37,4 km/h (5 Bft) 3 min 0 min
18.04.2019 13:50 22,0 C 20,4 C 17,0 C 31 % 79 % 1026 hPa 0,0 l/m 30,3 km/h (5 Bft) 3 min 0 min
18.04.2019 13:53 22,0 C 20,5 C 17,7 C 31 % 79 % 1026 hPa 0,0 l/m 33,4 km/h (5 Bft) 3 min 0 min
18.04.2019 13:56 22,0 C 20,5 C 19,3 C 31 % 79 % 1026 hPa 0,0 l/m 27,1 km/h (4 Bft) 3 min 0 min
18.04.2019 13:59 22,0 C 20,8 C 19,3 C 31 % 79 % 1026 hPa 0,0 l/m 34,1 km/h (5 Bft) 3 min 0 min
18.04.2019 14:02 22,0 C 20,9 C 19,5 C 31 % 79 % 1026 hPa 0,0 l/m 25,6 km/h (4 Bft) 3 min 0 min
18.04.2019 14:05 22,0 C 20,7 C 19,5 C 30 % 79 % 1026 hPa 0,0 l/m 31,5 km/h (5 Bft) 3 min 0 min
18.04.2019 14:08 22,0 C 20,8 C 19,7 C 32 % 79 % 1026 hPa 0,0 l/m 31,9 km/h (5 Bft) 3 min 0 min
18.04.2019 14:11 22,0 C 20,8 C 20,0 C 31 % 79 % 1026 hPa 0,0 l/m 32,1 km/h (5 Bft) 3 min 0 min
18.04.2019 14:14 22,0 C 20,8 C 19,7 C 31 % 79 % 1026 hPa 0,0 l/m 26,1 km/h (4 Bft) 3 min 0 min
18.04.2019 14:17 22,0 C 21,0 C 19,9 C 31 % 79 % 1026 hPa 0,0 l/m 26,1 km/h (4 Bft) 3 min 0 min
18.04.2019 14:20 22,0 C 21,0 C 19,5 C 31 % 79 % 1026 hPa 0,0 l/m 31,5 km/h (5 Bft) 3 min 0 min
18.04.2019 14:23 22,0 C 21,0 C 19,5 C 31 % 79 % 1026 hPa 0,0 l/m 27,0 km/h (4 Bft) 3 min 0 min
18.04.2019 14:26 22,0 C 21,0 C 20,0 C 31 % 79 % 1026 hPa 0,0 l/m 26,7 km/h (4 Bft) 3 min 0 min
18.04.2019 14:29 22,0 C 21,0 C 19,6 C 31 % 79 % 1026 hPa 0,0 l/m 37,0 km/h (5 Bft) 3 min 0 min
18.04.2019 14:32 22,0 C 21,0 C 20,6 C 30 % 79 % 1026 hPa 0,0 l/m 34,1 km/h (5 Bft) 3 min 0 min
18.04.2019 14:35 22,0 C 21,0 C 20,6 C 30 % 79 % 1026 hPa 0,0 l/m 24,3 km/h (4 Bft) 3 min 0 min
18.04.2019 14:38 22,0 C 21,0 C 20,4 C 30 % 79 % 1026 hPa 0,0 l/m 24,3 km/h (4 Bft) 3 min 0 min
18.04.2019 14:41 22,0 C 21,0 C 20,1 C 30 % 79 % 1026 hPa 0,0 l/m 27,8 km/h (4 Bft) 3 min 0 min
18.04.2019 14:44 22,0 C 21,0 C 20,8 C 31 % 80 % 1026 hPa 0,0 l/m 19,4 km/h (3 Bft) 3 min 0 min
18.04.2019 14:47 22,1 C 21,2 C 20,8 C 32 % 79 % 1026 hPa 0,0 l/m 22,7 km/h (4 Bft) 3 min 0 min
18.04.2019 14:50 22,2 C 21,2 C 21,0 C 32 % 79 % 1026 hPa 0,0 l/m 31,6 km/h (5 Bft) 3 min 0 min
18.04.2019 14:53 22,2 C 21,3 C 21,3 C 31 % 79 % 1026 hPa 0,0 l/m 18,0 km/h (3 Bft) 3 min 0 min
18.04.2019 14:56 22,2 C 21,1 C 19,6 C 31 % 79 % 1026 hPa 0,0 l/m 28,6 km/h (4 Bft) 3 min 0 min
18.04.2019 14:59 22,2 C 21,1 C 20,0 C 32 % 79 % 1025 hPa 0,0 l/m 22,1 km/h (4 Bft) 3 min 0 min
18.04.2019 15:02 22,3 C 20,9 C 19,3 C 31 % 79 % 1026 hPa 0,0 l/m 18,9 km/h (3 Bft) 3 min 0 min
18.04.2019 15:05 22,3 C 20,8 C 20,4 C 32 % 79 % 1025 hPa 0,0 l/m 17,9 km/h (3 Bft) 3 min 0 min
18.04.2019 15:08 22,2 C 21,0 C 19,6 C 31 % 79 % 1025 hPa 0,0 l/m 24,9 km/h (4 Bft) 3 min 0 min
18.04.2019 15:11 22,2 C 20,9 C 19,7 C 32 % 79 % 1025 hPa 0,0 l/m 21,5 km/h (4 Bft) 3 min 0 min
18.04.2019 15:14 22,2 C 21,0 C 19,6 C 31 % 79 % 1025 hPa 0,0 l/m 23,1 km/h (4 Bft) 3 min 0 min
18.04.2019 15:17 22,2 C 21,0 C 18,9 C 32 % 79 % 1025 hPa 0,0 l/m 22,5 km/h (4 Bft) 3 min 0 min
18.04.2019 15:20 22,2 C 21,0 C 18,9 C 32 % 79 % 1025 hPa 0,0 l/m 26,0 km/h (4 Bft) 3 min 0 min
18.04.2019 15:23 22,2 C 20,9 C 19,4 C 32 % 79 % 1025 hPa 0,0 l/m 26,0 km/h (4 Bft) 3 min 0 min
18.04.2019 15:26 22,4 C 21,1 C 19,3 C 32 % 79 % 1025 hPa 0,0 l/m 34,8 km/h (5 Bft) 3 min 0 min
18.04.2019 15:29 22,5 C 21,0 C 19,4 C 31 % 79 % 1025 hPa 0,0 l/m 28,3 km/h (4 Bft) 3 min 0 min
18.04.2019 15:32 22,6 C 21,1 C 19,0 C 32 % 79 % 1025 hPa 0,0 l/m 19,5 km/h (3 Bft) 3 min 0 min
18.04.2019 15:35 22,7 C 21,0 C 18,9 C 32 % 79 % 1025 hPa 0,0 l/m 22,9 km/h (4 Bft) 3 min 0 min
18.04.2019 15:38 22,6 C 21,2 C 18,9 C 34 % 79 % 1025 hPa 0,0 l/m 32,6 km/h (5 Bft) 3 min 0 min
18.04.2019 15:41 22,6 C 21,2 C 19,2 C 32 % 79 % 1025 hPa 0,0 l/m 22,5 km/h (4 Bft) 3 min 0 min
18.04.2019 15:44 22,7 C 21,0 C 18,9 C 32 % 79 % 1025 hPa 0,0 l/m 23,1 km/h (4 Bft) 3 min 0 min
18.04.2019 15:47 22,6 C 21,2 C 18,6 C 33 % 79 % 1025 hPa 0,0 l/m 18,6 km/h (3 Bft) 3 min 0 min
18.04.2019 15:50 22,6 C 21,1 C 18,4 C 33 % 79 % 1025 hPa 0,0 l/m 20,1 km/h (4 Bft) 3 min 0 min
18.04.2019 15:53 22,4 C 21,4 C 18,8 C 33 % 79 % 1025 hPa 0,0 l/m 17,5 km/h (3 Bft) 3 min 0 min
18.04.2019 15:56 22,4 C 21,3 C 18,8 C 33 % 79 % 1025 hPa 0,0 l/m 23,0 km/h (4 Bft) 3 min 0 min
18.04.2019 15:59 22,4 C 21,6 C 18,8 C 33 % 79 % 1025 hPa 0,0 l/m 24,3 km/h (4 Bft) 3 min 0 min
18.04.2019 16:02 22,4 C 21,6 C 18,8 C 32 % 79 % 1025 hPa 0,0 l/m 20,7 km/h (4 Bft) 3 min 0 min
18.04.2019 16:05 22,4 C 21,7 C 18,4 C 32 % 79 % 1025 hPa 0,0 l/m 18,5 km/h (3 Bft) 3 min 0 min
18.04.2019 16:08 22,4 C 21,7 C 18,2 C 32 % 79 % 1025 hPa 0,0 l/m 21,5 km/h (4 Bft) 3 min 0 min
18.04.2019 16:11 22,4 C 21,5 C 18,1 C 33 % 79 % 1025 hPa 0,0 l/m 22,9 km/h (4 Bft) 3 min 0 min
18.04.2019 16:14 22,4 C 21,3 C 18,1 C 33 % 79 % 1025 hPa 0,0 l/m 24,7 km/h (4 Bft) 3 min 0 min
18.04.2019 16:17 22,4 C 21,2 C 18,4 C 34 % 79 % 1025 hPa 0,0 l/m 27,2 km/h (4 Bft) 3 min 0 min
18.04.2019 16:20 22,4 C 21,2 C 18,3 C 34 % 79 % 1025 hPa 0,0 l/m 22,0 km/h (4 Bft) 3 min 0 min
18.04.2019 16:23 22,4 C 21,3 C 18,1 C 33 % 79 % 1025 hPa 0,0 l/m 17,5 km/h (3 Bft) 3 min 0 min
18.04.2019 16:26 22,4 C 21,3 C 18,0 C 33 % 78 % 1025 hPa 0,0 l/m 21,5 km/h (4 Bft) 3 min 0 min
18.04.2019 16:29 22,4 C 21,2 C 18,2 C 33 % 78 % 1025 hPa 0,0 l/m 25,1 km/h (4 Bft) 3 min 0 min
18.04.2019 16:32 22,4 C 21,1 C 18,2 C 34 % 78 % 1025 hPa 0,0 l/m 22,4 km/h (4 Bft) 3 min 0 min
18.04.2019 16:35 22,4 C 21,1 C 18,1 C 34 % 78 % 1025 hPa 0,0 l/m 22,2 km/h (4 Bft) 3 min 0 min
18.04.2019 16:38 22,4 C 21,2 C 17,9 C 34 % 78 % 1025 hPa 0,0 l/m 24,3 km/h (4 Bft) 3 min 0 min
18.04.2019 16:41 22,4 C 21,3 C 17,7 C 33 % 78 % 1025 hPa 0,0 l/m 24,6 km/h (4 Bft) 3 min 0 min
18.04.2019 16:44 22,4 C 21,2 C 17,8 C 34 % 78 % 1025 hPa 0,0 l/m 23,1 km/h (4 Bft) 3 min 0 min
18.04.2019 16:47 22,4 C 21,4 C 17,5 C 34 % 78 % 1025 hPa 0,0 l/m 20,5 km/h (4 Bft) 3 min 0 min
18.04.2019 16:50 22,4 C 21,3 C 17,6 C 33 % 77 % 1025 hPa 0,0 l/m 28,5 km/h (4 Bft) 3 min 0 min
18.04.2019 16:53 22,4 C 21,2 C 17,3 C 33 % 77 % 1025 hPa 0,0 l/m 23,2 km/h (4 Bft) 3 min 0 min
18.04.2019 16:56 22,4 C 21,2 C 17,0 C 33 % 77 % 1025 hPa 0,0 l/m 24,6 km/h (4 Bft) 3 min 0 min
18.04.2019 16:59 22,4 C 21,6 C 16,7 C 33 % 77 % 1025 hPa 0,0 l/m 21,2 km/h (4 Bft) 3 min 0 min
18.04.2019 17:02 22,5 C 21,2 C 16,4 C 33 % 77 % 1025 hPa 0,0 l/m 23,8 km/h (4 Bft) 3 min 0 min
18.04.2019 17:05 22,5 C 21,2 C 16,0 C 33 % 77 % 1025 hPa 0,0 l/m 20,6 km/h (4 Bft) 3 min 0 min
18.04.2019 17:08 22,5 C 21,3 C 15,6 C 33 % 77 % 1025 hPa 0,0 l/m 24,0 km/h (4 Bft) 3 min 0 min
18.04.2019 17:11 22,4 C 21,3 C 15,4 C 33 % 77 % 1025 hPa 0,0 l/m 25,0 km/h (4 Bft) 3 min 0 min
18.04.2019 17:14 22,4 C 21,2 C 15,1 C 34 % 76 % 1025 hPa 0,0 l/m 19,2 km/h (3 Bft) 3 min 0 min
18.04.2019 17:17 22,4 C 21,0 C 14,8 C 34 % 77 % 1025 hPa 0,0 l/m 28,3 km/h (4 Bft) 3 min 0 min
18.04.2019 17:20 22,4 C 20,9 C 14,6 C 34 % 77 % 1025 hPa 0,0 l/m 22,1 km/h (4 Bft) 3 min 0 min
18.04.2019 17:23 22,4 C 20,9 C 14,5 C 34 % 77 % 1025 hPa 0,0 l/m 22,1 km/h (4 Bft) 3 min 0 min
18.04.2019 17:26 22,4 C 20,8 C 14,4 C 34 % 77 % 1025 hPa 0,0 l/m 21,3 km/h (4 Bft) 3 min 0 min
18.04.2019 17:29 22,4 C 20,8 C 14,3 C 34 % 76 % 1025 hPa 0,0 l/m 27,3 km/h (4 Bft) 3 min 0 min
18.04.2019 17:32 22,4 C 20,6 C 14,3 C 33 % 77 % 1025 hPa 0,0 l/m 32,5 km/h (5 Bft) 3 min 0 min
18.04.2019 17:35 22,4 C 20,5 C 14,3 C 33 % 77 % 1025 hPa 0,0 l/m 29,1 km/h (5 Bft) 3 min 0 min
18.04.2019 17:38 22,4 C 20,4 C 14,2 C 34 % 77 % 1025 hPa 0,0 l/m 23,3 km/h (4 Bft) 3 min 0 min
18.04.2019 17:41 22,4 C 20,4 C 14,1 C 34 % 77 % 1025 hPa 0,0 l/m 25,6 km/h (4 Bft) 3 min 0 min
18.04.2019 17:44 22,4 C 20,5 C 14,0 C 35 % 77 % 1025 hPa 0,0 l/m 20,5 km/h (4 Bft) 3 min 0 min
18.04.2019 17:47 22,4 C 20,6 C 13,7 C 34 % 77 % 1025 hPa 0,0 l/m 18,7 km/h (3 Bft) 3 min 0 min
18.04.2019 17:50 22,4 C 20,4 C 13,6 C 34 % 77 % 1025 hPa 0,0 l/m 19,5 km/h (3 Bft) 3 min 0 min
18.04.2019 17:53 22,4 C 20,4 C 13,5 C 34 % 77 % 1025 hPa 0,0 l/m 19,0 km/h (3 Bft) 3 min 0 min
18.04.2019 17:56 22,4 C 20,4 C 13,4 C 34 % 77 % 1025 hPa 0,0 l/m 27,2 km/h (4 Bft) 3 min 0 min
18.04.2019 17:59 22,4 C 20,3 C 13,2 C 34 % 77 % 1025 hPa 0,0 l/m 30,0 km/h (5 Bft) 3 min 0 min
18.04.2019 18:02 22,4 C 20,3 C 13,1 C 34 % 77 % 1025 hPa 0,0 l/m 30,0 km/h (5 Bft) 3 min 0 min
18.04.2019 18:05 22,4 C 20,2 C 13,0 C 34 % 77 % 1025 hPa 0,0 l/m 28,5 km/h (4 Bft) 3 min 0 min
18.04.2019 18:08 22,4 C 20,2 C 12,9 C 34 % 76 % 1025 hPa 0,0 l/m 21,3 km/h (4 Bft) 3 min 0 min
18.04.2019 18:11 22,4 C 20,2 C 12,9 C 34 % 76 % 1025 hPa 0,0 l/m 23,8 km/h (4 Bft) 3 min 0 min
18.04.2019 18:14 22,3 C 20,2 C 12,8 C 35 % 76 % 1025 hPa 0,0 l/m 23,0 km/h (4 Bft) 3 min 0 min
18.04.2019 18:17 22,3 C 20,1 C 12,7 C 34 % 75 % 1025 hPa 0,0 l/m 30,4 km/h (5 Bft) 3 min 0 min
18.04.2019 18:20 22,3 C 19,9 C 12,7 C 35 % 74 % 1025 hPa 0,0 l/m 22,6 km/h (4 Bft) 3 min 0 min
18.04.2019 18:23 22,3 C 19,9 C 12,6 C 35 % 74 % 1025 hPa 0,0 l/m 20,5 km/h (4 Bft) 3 min 0 min
18.04.2019 18:26 22,3 C 19,8 C 12,5 C 35 % 73 % 1025 hPa 0,0 l/m 18,7 km/h (3 Bft) 3 min 0 min
18.04.2019 18:29 22,3 C 19,8 C 12,4 C 35 % 72 % 1025 hPa 0,0 l/m 23,5 km/h (4 Bft) 3 min 0 min
18.04.2019 18:32 22,3 C 19,6 C 12,3 C 35 % 71 % 1025 hPa 0,0 l/m 30,7 km/h (5 Bft) 3 min 0 min
18.04.2019 18:35 22,3 C 19,5 C 12,2 C 36 % 71 % 1025 hPa 0,0 l/m 23,8 km/h (4 Bft) 3 min 0 min
18.04.2019 18:38 22,3 C 19,4 C 12,2 C 36 % 67 % 1025 hPa 0,0 l/m 18,9 km/h (3 Bft) 3 min 0 min
18.04.2019 18:41 22,3 C 19,4 C 12,1 C 36 % 65 % 1025 hPa 0,0 l/m 20,3 km/h (4 Bft) 3 min 0 min
18.04.2019 18:44 22,3 C 19,3 C 12,1 C 36 % 62 % 1025 hPa 0,0 l/m 21,2 km/h (4 Bft) 3 min 0 min
18.04.2019 18:47 22,3 C 19,2 C 12,0 C 36 % 60 % 1025 hPa 0,0 l/m 14,0 km/h (3 Bft) 3 min 0 min
18.04.2019 18:50 22,3 C 19,0 C 11,9 C 36 % 60 % 1026 hPa 0,0 l/m 17,1 km/h (3 Bft) 3 min 0 min
18.04.2019 18:53 22,3 C 18,9 C 11,9 C 36 % 55 % 1026 hPa 0,0 l/m 23,1 km/h (4 Bft) 3 min 0 min
18.04.2019 18:56 22,2 C 18,8 C 11,9 C 36 % 52 % 1026 hPa 0,0 l/m 28,3 km/h (4 Bft) 3 min 0 min
18.04.2019 18:59 22,3 C 18,8 C 11,9 C 36 % 49 % 1026 hPa 0,0 l/m 24,3 km/h (4 Bft) 3 min 0 min
18.04.2019 19:02 22,3 C 18,6 C 11,8 C 37 % 45 % 1026 hPa 0,0 l/m 22,3 km/h (4 Bft) 3 min 0 min
18.04.2019 19:05 22,2 C 18,6 C 11,7 C 37 % 43 % 1026 hPa 0,0 l/m 22,1 km/h (4 Bft) 3 min 0 min
18.04.2019 19:08 22,2 C 18,4 C 11,7 C 37 % 39 % 1026 hPa 0,0 l/m 17,1 km/h (3 Bft) 3 min 0 min
18.04.2019 19:11 22,2 C 18,3 C 11,6 C 38 % 36 % 1026 hPa 0,0 l/m 15,5 km/h (3 Bft) 3 min 0 min
18.04.2019 19:14 22,2 C 18,3 C 11,6 C 37 % 19 % 1026 hPa 0,0 l/m 23,6 km/h (4 Bft) 3 min 0 min
18.04.2019 19:17 22,2 C 18,2 C 11,5 C 38 % 23 % 1026 hPa 0,0 l/m 20,3 km/h (4 Bft) 3 min 0 min
18.04.2019 19:20 22,2 C 18,2 C 11,5 C 38 % 20 % 1026 hPa 0,0 l/m 19,6 km/h (3 Bft) 3 min 0 min
18.04.2019 19:23 22,2 C 18,1 C 11,4 C 38 % 17 % 1026 hPa 0,0 l/m 19,6 km/h (3 Bft) 3 min 0 min
18.04.2019 19:26 22,2 C 18,1 C 11,4 C 38 % 17 % 1026 hPa 0,0 l/m 21,0 km/h (4 Bft) 3 min 0 min
18.04.2019 19:29 22,2 C 17,9 C 11,3 C 39 % 7 % 1026 hPa 0,0 l/m 16,0 km/h (3 Bft) 0 min 0 min
18.04.2019 19:32 22,2 C 17,7 C 11,1 C 39 % 7 % 1026 hPa 0,0 l/m 16,0 km/h (3 Bft) 0 min 0 min
18.04.2019 19:35 22,2 C 17,6 C 11,1 C 39 % 6 % 1026 hPa 0,0 l/m 17,3 km/h (3 Bft) 0 min 0 min
18.04.2019 19:38 22,2 C 17,5 C 11,1 C 39 % 5 % 1026 hPa 0,0 l/m 19,2 km/h (3 Bft) 3 min 0 min
18.04.2019 19:41 22,2 C 17,4 C 11,1 C 39 % 5 % 1026 hPa 0,0 l/m 15,0 km/h (3 Bft) 3 min 0 min
18.04.2019 19:44 22,2 C 17,4 C 11,2 C 39 % 4 % 1026 hPa 0,0 l/m 15,8 km/h (3 Bft) 3 min 0 min
18.04.2019 19:47 22,2 C 17,4 C 11,1 C 39 % 4 % 1026 hPa 0,0 l/m 15,8 km/h (3 Bft) 3 min 0 min
18.04.2019 19:50 22,2 C 17,4 C 11,0 C 39 % 4 % 1026 hPa 0,0 l/m 17,5 km/h (3 Bft) 3 min 0 min
18.04.2019 19:53 22,2 C 17,4 C 11,0 C 39 % 3 % 1026 hPa 0,0 l/m 11,8 km/h (2 Bft) 0 min 0 min
18.04.2019 19:56 22,2 C 17,0 C 10,9 C 40 % 2 % 1026 hPa 0,0 l/m 15,5 km/h (3 Bft) 0 min 0 min
18.04.2019 19:59 22,2 C 17,0 C 10,9 C 40 % 2 % 1026 hPa 0,0 l/m 16,6 km/h (3 Bft) 0 min 0 min
18.04.2019 20:02 22,2 C 16,8 C 10,8 C 40 % 1 % 1026 hPa 0,0 l/m 10,0 km/h (2 Bft) 0 min 0 min
18.04.2019 20:05 22,2 C 16,8 C 10,7 C 41 % 1 % 1026 hPa 0,0 l/m 11,5 km/h (2 Bft) 0 min 0 min
18.04.2019 20:08 22,2 C 16,6 C 10,7 C 41 % 1 % 1026 hPa 0,0 l/m 9,6 km/h (2 Bft) 0 min 0 min
18.04.2019 20:11 22,2 C 16,5 C 10,7 C 41 % 1 % 1026 hPa 0,0 l/m 8,8 km/h (2 Bft) 0 min 0 min
18.04.2019 20:14 22,2 C 16,4 C 10,6 C 41 % 0 % 1026 hPa 0,0 l/m 8,7 km/h (2 Bft) 0 min 0 min
18.04.2019 20:17 22,2 C 16,3 C 10,6 C 42 % 0 % 1026 hPa 0,0 l/m 9,8 km/h (2 Bft) 0 min 0 min
18.04.2019 20:20 22,2 C 16,2 C 10,4 C 43 % 0 % 1026 hPa 0,0 l/m 2,7 km/h (1 Bft) 0 min 0 min
18.04.2019 20:23 22,1 C 16,0 C 10,4 C 43 % 0 % 1026 hPa 0,0 l/m 8,5 km/h (2 Bft) 0 min 0 min
18.04.2019 20:26 22,2 C 16,0 C 10,4 C 44 % 0 % 1026 hPa 0,0 l/m 7,4 km/h (2 Bft) 0 min 0 min
18.04.2019 20:29 22,2 C 15,8 C 10,3 C 44 % 0 % 1026 hPa 0,0 l/m 8,3 km/h (2 Bft) 0 min 0 min
18.04.2019 20:32 22,1 C 15,7 C 10,3 C 44 % 0 % 1026 hPa 0,0 l/m 11,2 km/h (2 Bft) 0 min 0 min
18.04.2019 20:35 22,2 C 15,6 C 10,2 C 44 % 0 % 1026 hPa 0,0 l/m 8,6 km/h (2 Bft) 0 min 0 min
18.04.2019 20:38 22,2 C 15,5 C 10,2 C 44 % 0 % 1027 hPa 0,0 l/m 11,8 km/h (2 Bft) 0 min 0 min
18.04.2019 20:41 22,2 C 15,5 C 10,3 C 44 % 0 % 1027 hPa 0,0 l/m 12,9 km/h (3 Bft) 0 min 0 min
18.04.2019 20:44 22,2 C 15,4 C 10,2 C 44 % 0 % 1027 hPa 0,0 l/m 12,0 km/h (2 Bft) 0 min 0 min
18.04.2019 20:47 22,2 C 15,3 C 10,1 C 44 % 0 % 1027 hPa 0,0 l/m 9,1 km/h (2 Bft) 0 min 0 min
18.04.2019 20:50 22,2 C 15,2 C 10,1 C 44 % 0 % 1027 hPa 0,0 l/m 12,0 km/h (2 Bft) 0 min 0 min
18.04.2019 20:53 22,2 C 15,2 C 10,1 C 44 % 0 % 1027 hPa 0,0 l/m 12,0 km/h (2 Bft) 0 min 0 min
18.04.2019 20:56 22,1 C 15,0 C 10,0 C 45 % 0 % 1027 hPa 0,0 l/m 11,2 km/h (2 Bft) 0 min 0 min
18.04.2019 20:59 22,2 C 15,0 C 10,0 C 45 % 0 % 1027 hPa 0,0 l/m 13,9 km/h (3 Bft) 0 min 0 min
18.04.2019 21:02 22,2 C 15,0 C 10,0 C 45 % 0 % 1027 hPa 0,0 l/m 16,2 km/h (3 Bft) 0 min 0 min
18.04.2019 21:05 22,1 C 15,0 C 9,9 C 45 % 0 % 1027 hPa 0,0 l/m 14,5 km/h (3 Bft) 0 min 0 min
18.04.2019 21:08 22,1 C 15,0 C 9,9 C 45 % 0 % 1027 hPa 0,0 l/m 12,9 km/h (3 Bft) 0 min 0 min
18.04.2019 21:11 22,1 C 15,0 C 9,9 C 45 % 0 % 1027 hPa 0,0 l/m 13,7 km/h (3 Bft) 0 min 0 min
18.04.2019 21:14 22,1 C 15,0 C 9,9 C 45 % 0 % 1027 hPa 0,0 l/m 13,7 km/h (3 Bft) 0 min 0 min
18.04.2019 21:17 22,1 C 14,9 C 9,9 C 45 % 0 % 1027 hPa 0,0 l/m 11,9 km/h (2 Bft) 0 min 0 min
18.04.2019 21:20 22,1 C 14,9 C 9,8 C 45 % 0 % 1027 hPa 0,0 l/m 16,6 km/h (3 Bft) 0 min 0 min
18.04.2019 21:23 22,2 C 15,0 C 9,8 C 45 % 0 % 1027 hPa 0,0 l/m 17,6 km/h (3 Bft) 0 min 0 min
18.04.2019 21:26 22,1 C 15,0 C 9,8 C 45 % 0 % 1027 hPa 0,0 l/m 14,6 km/h (3 Bft) 0 min 0 min
18.04.2019 21:29 22,1 C 14,9 C 9,8 C 45 % 0 % 1027 hPa 0,0 l/m 11,5 km/h (2 Bft) 0 min 0 min
18.04.2019 21:32 22,2 C 14,9 C 9,8 C 45 % 0 % 1027 hPa 0,0 l/m 20,2 km/h (4 Bft) 0 min 0 min
18.04.2019 21:35 22,2 C 14,8 C 9,8 C 45 % 0 % 1027 hPa 0,0 l/m 17,9 km/h (3 Bft) 0 min 0 min
18.04.2019 21:38 22,1 C 14,8 C 9,8 C 45 % 0 % 1027 hPa 0,0 l/m 13,3 km/h (3 Bft) 0 min 0 min
18.04.2019 21:41 22,2 C 14,7 C 9,7 C 45 % 0 % 1027 hPa 0,0 l/m 13,1 km/h (3 Bft) 0 min 0 min
18.04.2019 21:44 22,2 C 14,6 C 9,7 C 46 % 0 % 1027 hPa 0,0 l/m 12,3 km/h (3 Bft) 0 min 0 min
18.04.2019 21:47 22,2 C 14,7 C 9,6 C 45 % 0 % 1027 hPa 0,0 l/m 15,9 km/h (3 Bft) 0 min 0 min
18.04.2019 21:50 22,2 C 14,6 C 9,6 C 46 % 0 % 1027 hPa 0,0 l/m 14,5 km/h (3 Bft) 0 min 0 min
18.04.2019 21:53 22,2 C 14,6 C 9,6 C 46 % 0 % 1027 hPa 0,0 l/m 16,2 km/h (3 Bft) 0 min 0 min
18.04.2019 21:56 22,2 C 14,6 C 9,6 C 45 % 0 % 1027 hPa 0,0 l/m 13,3 km/h (3 Bft) 0 min 0 min
18.04.2019 21:59 22,2 C 14,6 C 9,6 C 45 % 0 % 1027 hPa 0,0 l/m 19,6 km/h (3 Bft) 0 min 0 min
18.04.2019 22:02 22,2 C 14,6 C 9,5 C 45 % 0 % 1027 hPa 0,0 l/m 20,4 km/h (4 Bft) 0 min 0 min
18.04.2019 22:05 22,1 C 14,6 C 9,5 C 45 % 0 % 1027 hPa 0,0 l/m 18,8 km/h (3 Bft) 0 min 0 min
18.04.2019 22:08 22,1 C 14,6 C 9,5 C 45 % 0 % 1027 hPa 0,0 l/m 16,4 km/h (3 Bft) 0 min 0 min
18.04.2019 22:11 22,1 C 14,6 C 9,5 C 45 % 0 % 1027 hPa 0,0 l/m 18,2 km/h (3 Bft) 0 min 0 min
18.04.2019 22:14 22,1 C 14,5 C 9,4 C 46 % 0 % 1027 hPa 0,0 l/m 13,9 km/h (3 Bft) 0 min 0 min
18.04.2019 22:17 22,1 C 14,4 C 9,4 C 46 % 0 % 1027 hPa 0,0 l/m 19,3 km/h (3 Bft) 0 min 0 min
18.04.2019 22:20 22,1 C 14,4 C 9,5 C 46 % 0 % 1027 hPa 0,0 l/m 18,6 km/h (3 Bft) 0 min 0 min
18.04.2019 22:23 22,1 C 14,3 C 9,4 C 46 % 0 % 1027 hPa 0,0 l/m 18,6 km/h (3 Bft) 0 min 0 min
18.04.2019 22:26 22,1 C 14,4 C 9,4 C 46 % 0 % 1027 hPa 0,0 l/m 18,5 km/h (3 Bft) 0 min 0 min
18.04.2019 22:29 22,1 C 14,3 C 9,3 C 46 % 0 % 1027 hPa 0,0 l/m 14,6 km/h (3 Bft) 0 min 0 min
18.04.2019 22:32 22,1 C 14,3 C 9,3 C 46 % 0 % 1027 hPa 0,0 l/m 13,5 km/h (3 Bft) 0 min 0 min
18.04.2019 22:35 22,1 C 14,3 C 9,3 C 46 % 0 % 1027 hPa 0,0 l/m 23,5 km/h (4 Bft) 0 min 0 min
18.04.2019 22:38 22,1 C 14,2 C 9,3 C 47 % 0 % 1027 hPa 0,0 l/m 17,8 km/h (3 Bft) 0 min 0 min
18.04.2019 22:41 22,1 C 14,2 C 9,3 C 47 % 0 % 1027 hPa 0,0 l/m 13,6 km/h (3 Bft) 0 min 0 min
18.04.2019 22:44 22,1 C 14,2 C 9,3 C 46 % 0 % 1027 hPa 0,0 l/m 16,8 km/h (3 Bft) 0 min 0 min
18.04.2019 22:47 22,1 C 14,2 C 9,3 C 47 % 0 % 1027 hPa 0,0 l/m 14,6 km/h (3 Bft) 0 min 0 min
18.04.2019 22:50 22,1 C 14,0 C 9,3 C 47 % 0 % 1027 hPa 0,0 l/m 13,8 km/h (3 Bft) 0 min 0 min
18.04.2019 22:53 22,0 C 14,0 C 9,2 C 47 % 0 % 1027 hPa 0,0 l/m 24,5 km/h (4 Bft) 0 min 0 min
18.04.2019 22:56 22,1 C 14,0 C 9,2 C 47 % 0 % 1027 hPa 0,0 l/m 18,3 km/h (3 Bft) 0 min 0 min
18.04.2019 22:59 22,0 C 14,0 C 9,2 C 47 % 0 % 1027 hPa 0,0 l/m 21,4 km/h (4 Bft) 0 min 0 min
18.04.2019 23:02 22,0 C 14,0 C 9,1 C 47 % 0 % 1027 hPa 0,0 l/m 17,0 km/h (3 Bft) 0 min 0 min
18.04.2019 23:05 22,0 C 14,0 C 9,1 C 47 % 0 % 1027 hPa 0,0 l/m 15,4 km/h (3 Bft) 0 min 0 min
18.04.2019 23:08 22,0 C 14,0 C 9,2 C 47 % 0 % 1027 hPa 0,0 l/m 21,3 km/h (4 Bft) 0 min 0 min
18.04.2019 23:11 22,0 C 13,9 C 9,2 C 47 % 0 % 1028 hPa 0,0 l/m 13,8 km/h (3 Bft) 0 min 0 min
18.04.2019 23:14 22,0 C 13,8 C 9,1 C 48 % 0 % 1028 hPa 0,0 l/m 14,0 km/h (3 Bft) 0 min 0 min
18.04.2019 23:17 22,0 C 13,8 C 9,1 C 48 % 0 % 1028 hPa 0,0 l/m 14,0 km/h (3 Bft) 0 min 0 min
18.04.2019 23:20 22,0 C 13,8 C 9,1 C 48 % 0 % 1028 hPa 0,0 l/m 20,8 km/h (4 Bft) 0 min 0 min
18.04.2019 23:23 22,0 C 13,7 C 9,1 C 49 % 0 % 1028 hPa 0,0 l/m 22,7 km/h (4 Bft) 0 min 0 min
18.04.2019 23:26 22,0 C 13,6 C 9,0 C 49 % 0 % 1028 hPa 0,0 l/m 18,8 km/h (3 Bft) 0 min 0 min
18.04.2019 23:29 22,0 C 13,6 C 9,0 C 49 % 0 % 1028 hPa 0,0 l/m 22,3 km/h (4 Bft) 0 min 0 min
18.04.2019 23:32 22,0 C 13,5 C 8,9 C 49 % 0 % 1028 hPa 0,0 l/m 17,0 km/h (3 Bft) 0 min 0 min
18.04.2019 23:35 22,0 C 13,4 C 8,8 C 50 % 0 % 1028 hPa 0,0 l/m 14,0 km/h (3 Bft) 0 min 0 min
18.04.2019 23:38 22,0 C 13,3 C 8,9 C 50 % 0 % 1028 hPa 0,0 l/m 17,3 km/h (3 Bft) 0 min 0 min
18.04.2019 23:41 22,0 C 13,4 C 8,9 C 50 % 0 % 1028 hPa 0,0 l/m 20,5 km/h (4 Bft) 0 min 0 min
18.04.2019 23:44 22,0 C 13,4 C 8,9 C 50 % 0 % 1028 hPa 0,0 l/m 13,8 km/h (3 Bft) 0 min 0 min
18.04.2019 23:47 22,0 C 13,3 C 8,8 C 50 % 0 % 1028 hPa 0,0 l/m 15,1 km/h (3 Bft) 0 min 0 min
18.04.2019 23:50 22,0 C 13,3 C 8,8 C 50 % 0 % 1028 hPa 0,0 l/m 13,8 km/h (3 Bft) 0 min 0 min
18.04.2019 23:53 22,0 C 13,3 C 8,8 C 50 % 0 % 1028 hPa 0,0 l/m 13,1 km/h (3 Bft) 0 min 0 min
18.04.2019 23:56 22,0 C 13,3 C 8,8 C 50 % 0 % 1028 hPa 0,0 l/m 13,1 km/h (3 Bft) 0 min 0 min
18.04.2019 23:59 22,0 C 13,2 C 8,8 C 50 % 0 % 1028 hPa 0,0 l/m 11,6 km/h (2 Bft) 0 min 0 min
_ Min-Zeit 02:08 06:08 06:17 14:05 - 03:14 - 00:44 - -
Minimum _ 21,7 C 4,1 C 6,2 C 30 % - 1025 hPa - 0,0 km/h (0 Bft) - -
_ Max-Zeit 15:35 16:05 14:53 06:17 12:14 23:11 00:02 12:26 06:23 00:02
Maximum _ 22,7 C 21,7 C 21,3 C 78 % 80 % 1028 hPa 0,0 l/m 38,6 km/h
SO (5 Bft)
3 min 0 min
Durchschnitt _ 22,0 C 13,7 C 10,8 C 52 % #11:48 h 1026 hPa #0,0 l/m 13,9 km/h (3 Bft) #11:48 h #0 min.